{"data":{"norad_id":66020,"intl_designator":"2025-232R","name":"STARLINK-35430","alt_names":[],"object_type":"PAYLOAD","status":"ACTIVE","operator":null,"country":"US","launch_date":"2025-10-16","launch_site_code":"AFETR","launch_vehicle":null,"mission":null,"orbit_class":"UNKNOWN","rcs_meters":null,"size_class":null,"mass_kg":null,"dimensions":null,"purposes":["comms"],"wikipedia_slug":null,"has_3d_model":false,"image_url":null,"decayed_at":null,"tle_current":{"epoch":"2026-09-20T21:46:39.041184Z","epoch_age_seconds":67867,"freshness":"FRESH","line1":"1 66020U 25232R   26263.90739631  .00020135  00000+0  60505-3 0  9994","line2":"2 66020  53.1580 275.7708 0001200  90.8984 269.2156 15.34420188 53325","mean_motion":15.34420188,"eccentricity":0.00012,"inclination_deg":53.158,"raan_deg":275.7708,"arg_perigee_deg":90.8984,"mean_anomaly_deg":269.2156,"bstar":0.00060505,"rev_number":5332,"period_min":93.846523348792,"perigee_km":461.822344246,"apogee_km":463.46413150309,"semimajor_km":6840.7802378745,"source":"CELESTRAK","updated_at":"2026-09-21T09:00:35.771378Z"}}}